ICEYE-X24 (52755 NORAD) Tracking and Keplerian Element Data

This shows tracking and keplerian element data for the satellite.

Feedback or suggestion? Click here.




ElementValue
Catalog52755
NameICEYE-X24
Epoch Orbit13285
Epoch Day286.81396047
Epoch Year2024
RAAN60.2501
Inclination97.5729
Eccentricity0.0004769
Argument of Perigee250.5895
Mean Anonmoly109.4846
Mean Motion15.60852289
Decay Rate0.00149515
L11 52755U 22057Z 24286.81396047 .00149515 00000+0 17629-2 0 9991
L22 52755 97.5729 60.2501 0004769 250.5895 109.4846 15.60852289132856



Live tracking and technical data element details for ICEYE-X24 (NORAD 52755). ICEYE-X24 can be tracked NOW for your location showing map with azimuth and elevation plus other details from your city location.







IsCatalogInMostPopularTable: catalog: 52755, numindb: 60
Update: records affected: 1



GetName: 52755 ICEYE-X24

Hit Count: updated at: Wed, 18 Jun 2025 04:58:16 GMT